Tillbaka till svenska Fidonet
English   Information   Debug  
FILM   0/18
FNEWS_PUBLISH   4881
FN_SYSOP   42085
FN_SYSOP_OLD1   71952
FTP_FIDO   0/2
FTSC_PUBLIC   0/13948
FUNNY   0/4886
GENEALOGY.EUR   0/71
GET_INFO   105
GOLDED   0/408
HAM   2674/16617
HOLYSMOKE   0/6791
HOT_SITES   0/1
HTMLEDIT   0/71
HUB203   466
HUB_100   264
HUB_400   39
HUMOR   0/29
IC   0/2851
INTERNET   0/424
INTERUSER   0/3
IP_CONNECT   719
JAMNNTPD   0/233
JAMTLAND   0/47
KATTY_KORNER   0/41
LAN   0/16
LINUX-USER   0/19
LINUXHELP   0/1155
LINUX   0/22287
LINUX_BBS   0/957
mail   18.68
mail_fore_ok   249
MENSA   0/341
MODERATOR   0/102
MONTE   0/992
MOSCOW_OKLAHOMA   0/1245
MUFFIN   0/783
MUSIC   0/321
N203_STAT   938
N203_SYSCHAT   313
NET203   321
NET204   69
NET_DEV   0/10
NORD.ADMIN   0/101
NORD.CHAT   0/2572
NORD.FIDONET   189
NORD.HARDWARE   0/28
NORD.KULTUR   0/114
NORD.PROG   0/32
NORD.SOFTWARE   0/88
NORD.TEKNIK   0/58
NORD   0/453
OCCULT_CHAT   0/93
OS2BBS   0/787
OS2DOSBBS   0/580
OS2HW   0/42
OS2INET   0/37
OS2LAN   0/134
OS2PROG   0/36
OS2REXX   0/113
OS2USER-L   207
OS2   0/4829
OSDEBATE   18699/18996
PASCAL   0/490
PERL   0/457
PHP   0/45
POINTS   0/405
POLITICS   0/29554
POL_INC   13084/14731
PSION   103
R20_ADMIN   1133
R20_AMATORRADIO   0/2
R20_BEST_OF_FIDONET   16
R20_CHAT   0/896
R20_DEPP   0/3
R20_DEV   400
R20_ECHO2   1788
R20_ECHOPRES   0/35
R20_ESTAT   0/719
R20_FIDONETPROG...
...RAM.MYPOINT
  0/2
R20_FIDONETPROGRAM   0/22
R20_FIDONET   0/248
R20_FILEFIND   0/24
R20_FILEFOUND   0/22
R20_HIFI   0/3
R20_INFO2   3681
R20_INTERNET   0/12940
R20_INTRESSE   0/60
R20_INTR_KOM   0/99
R20_KANDIDAT.CHAT   42
R20_KANDIDAT   28
R20_KOM_DEV   112
R20_KONTROLL   0/13360
R20_KORSET   0/18
R20_LOKALTRAFIK   0/24
R20_MODERATOR   0/1852
R20_NC   76
R20_NET200   245
R20_NETWORK.OTH...
...ERNETS
  0/13
R20_OPERATIVSYS...
...TEM.LINUX
  0/44
R20_PROGRAMVAROR   0/1
R20_REC2NEC   534
R20_SFOSM   0/341
R20_SF   0/108
R20_SPRAK.ENGLISH   0/1
R20_SQUISH   107
R20_TEST   2
R20_WORST_OF_FIDONET   20
RAR   0/9
RA_MULTI   106
RA_UTIL   0/162
REGCON.EUR   0/2067
REGCON   0/13
SCIENCE   0/1206
SF   0/239
SHAREWARE_SUPPORT   0/5146
SHAREWRE   0/14
SIMPSONS   0/169
STATS_OLD1   0/2539.065
STATS_OLD2   0/2530
STATS_OLD3   0/2395.095
STATS_OLD4   0/1692.25
SURVIVOR   0/495
SYSOPS_CORNER   0/3
SYSOP   0/84
TAGLINES   0/112
TEAMOS2   0/4530
TECH   0/2617
TEST.444   0/105
TRAPDOOR   0/19
TREK   0/755
TUB   0/290
UFO   0/40
UNIX   0/1316
USA_EURLINK   0/102
USR_MODEMS   0/1
VATICAN   0/2740
VIETNAM_VETS   0/14
VIRUS   0/378
VIRUS_INFO   0/201
VISUAL_BASIC   0/473
WHITEHOUSE   0/5187
WIN2000   0/101
WIN32   0/30
WIN95   466/4291
WIN95_OLD1   0/70272
WINDOWS   0/1517
WWB_SYSOP   0/419
WWB_TECH   0/810
ZCC-PUBLIC   0/1
ZEC   4

 
4DOS   0/134
ABORTION   0/7
ALASKA_CHAT   0/506
ALLFIX_FILE   0/1313
ALLFIX_FILE_OLD1   0/7997
ALT_DOS   0/152
AMATEUR_RADIO   0/1039
AMIGASALE   0/14
AMIGA   0/331
AMIGA_INT   0/1
AMIGA_PROG   0/20
AMIGA_SYSOP   0/26
ANIME   0/15
ARGUS   0/924
ASCII_ART   0/340
ASIAN_LINK   0/651
ASTRONOMY   0/417
AUDIO   0/92
AUTOMOBILE_RACING   0/105
BABYLON5   0/17862
BAG   135
BATPOWER   0/361
BBBS.ENGLISH   0/382
BBSLAW   0/109
BBS_ADS   0/5290
BBS_INTERNET   0/507
BIBLE   0/3563
BINKD   0/1119
BINKLEY   0/215
BLUEWAVE   0/2173
CABLE_MODEMS   0/25
CBM   0/46
CDRECORD   0/66
CDROM   0/20
CLASSIC_COMPUTER   0/378
COMICS   0/15
CONSPRCY   0/899
COOKING   41026
COOKING_OLD1   0/24719
COOKING_OLD2   0/40862
COOKING_OLD3   0/37489
COOKING_OLD4   0/35496
COOKING_OLD5   9370
C_ECHO   0/189
C_PLUSPLUS   0/31
DIRTY_DOZEN   0/201
DOORGAMES   0/2253
DOS_INTERNET   0/196
duplikat   6102
ECHOLIST   0/18295
EC_SUPPORT   0/318
ELECTRONICS   0/359
ELEKTRONIK.GER   1534
ENET.LINGUISTIC   0/13
ENET.POLITICS   0/4
ENET.SOFT   0/11701
ENET.SYSOP   34252
ENET.TALKS   0/32
ENGLISH_TUTOR   0/2000
EVOLUTION   0/1335
FDECHO   0/217
FDN_ANNOUNCE   0/7068
FIDONEWS   24977
FIDONEWS_OLD1   0/49742
FIDONEWS_OLD2   22065/35949
FIDONEWS_OLD3   0/30874
FIDONEWS_OLD4   0/37224
FIDO_SYSOP   12920
FIDO_UTIL   0/180
FILEFIND   0/209
FILEGATE   0/212
Möte HAM, 16617 texter
 lista första sista föregående nästa
Text 4210, 908 rader
Skriven 2010-12-23 22:02:34 av Amsat List (1:323/120.0)
Ärende: [keps]  orb10357.amsa
=============================
[keps]  orb10357.amsa

Return-Path: <keps-bounces@amsat.org>
X-Rcpt: craig.healy@chowda.com
X-UIDL: 1293156858.10902

SB KEPS @ AMSAT  $ORB10357.O
Orbital Elements  10357.OSCAR

HR AMSAT ORBITAL ELEMENTS FOR OSCAR SATELLITES
FROM WA5QGD FORT WORTH,TX December 23, 2010
Send Subscribe/unsubscribe to KEPS at http://www.amsat.org/mailman/listinfo/kep
BID: ORB10357.O
TO ALL RADIO AMATEURS BT

Satellite: AO-07
Catalog number: 07530
Epoch time:      10356.54525156
Element set:    0960
Inclination:      101.3958 deg
RA of node:       005.0559 deg
Eccentricity:    0.0011776
Arg of perigee:   265.6662 deg
Mean anomaly:     094.3065 deg
Mean motion:   12.53580593 rev/day
Decay rate:       -2.7e-07 rev/day^2
Epoch rev:           65205
Checksum:              298

Satellite: FO-29
Catalog number: 24278
Epoch time:      10356.90320684
Element set:    0468
Inclination:      098.5195 deg
RA of node:       160.0194 deg
Eccentricity:    0.0350904
Arg of perigee:   354.4540 deg
Mean anomaly:     005.2760 deg
Mean motion:   13.52955473 rev/day
Decay rate:       -4.6e-07 rev/day^2
Epoch rev:           70862
Checksum:              312

Satellite: SO-33
Catalog number: 25509
Epoch time:      10357.59989057
Element set:     865
Inclination:      031.4296 deg
RA of node:       157.3649 deg
Eccentricity:    0.0353519
Arg of perigee:   146.1701 deg
Mean anomaly:     216.1973 deg
Mean motion:   14.28352539 rev/day
Decay rate:       3.72e-06 rev/day^2
Epoch rev:           63515
Checksum:              333

Satellite: RS-22
Catalog number: 27939
Epoch time:      10357.65229028
Element set:     836
Inclination:      097.8648 deg
RA of node:       214.8102 deg
Eccentricity:    0.0013445
Arg of perigee:   176.2362 deg
Mean anomaly:     183.8937 deg
Mean motion:   14.63492137 rev/day
Decay rate:       1.31e-06 rev/day^2
Epoch rev:           38666
Checksum:              328

Satellite: VO-52
Catalog number: 28650
Epoch time:      10357.34208363
Element set:     676
Inclination:      097.6686 deg
RA of node:       043.1350 deg
Eccentricity:    0.0027588
Arg of perigee:   020.0921 deg
Mean anomaly:     340.1363 deg
Mean motion:   14.81876378 rev/day
Decay rate:       -2.4e-07 rev/day^2
Epoch rev:           30470
Checksum:              299

Satellite: SO-67
Catalog number: 35870
Epoch time:      10357.88824074
Element set:     405
Inclination:      097.3076 deg
RA of node:       041.7486 deg
Eccentricity:    0.0003920
Arg of perigee:   130.5069 deg
Mean anomaly:     221.4847 deg
Mean motion:   15.21253643 rev/day
Decay rate:       8.32e-06 rev/day^2
Epoch rev:            7028
Checksum:              302

Satellite: HO-68
Catalog number: 36122
Epoch time:      10357.88831141
Element set:     960
Inclination:      100.4446 deg
RA of node:       056.1753 deg
Eccentricity:    0.0007187
Arg of perigee:   265.7492 deg
Mean anomaly:     094.2802 deg
Mean motion:   13.16283342 rev/day
Decay rate:       -4.5e-07 rev/day^2
Epoch rev:            4917
Checksum:              297

/EX
SB KEPS @ AMSAT  $ORB10357.D
Orbital Elements  10357.MICROS

HR AMSAT ORBITAL ELEMENTS FOR THE MICROSATS
FROM WA5QGD FORT WORTH,TX December 23, 2010
Send Subscribe/unsubscribe to KEPS at http://www.amsat.org/mailman/listinfo/kep
BID: ORB10357.D
TO ALL RADIO AMATEURS BT

Satellite: UO-11
Catalog number: 14781
Epoch time:      10357.41470350
Element set:     425
Inclination:      098.0319 deg
RA of node:       049.4546 deg
Eccentricity:    0.0008897
Arg of perigee:   354.4697 deg
Mean anomaly:     005.6399 deg
Mean motion:   14.79872759 rev/day
Decay rate:       1.48e-06 rev/day^2
Epoch rev:           43979
Checksum:              352

Satellite: AO-16
Catalog number: 20439
Epoch time:      10356.58194492
Element set:    0076
Inclination:      098.3606 deg
RA of node:       307.3337 deg
Eccentricity:    0.0010705
Arg of perigee:   332.3846 deg
Mean anomaly:     027.6762 deg
Mean motion:   14.31888475 rev/day
Decay rate:        2.3e-07 rev/day^2
Epoch rev:           09234
Checksum:              308

Satellite: LO-19
Catalog number: 20442
Epoch time:      10356.68930594
Element set:     983
Inclination:      098.3234 deg
RA of node:       312.4814 deg
Eccentricity:    0.0011407
Arg of perigee:   324.9703 deg
Mean anomaly:     035.0738 deg
Mean motion:   14.32117348 rev/day
Decay rate:        8.8e-07 rev/day^2
Epoch rev:            9253
Checksum:              300

Satellite: AO-27
Catalog number: 22825
Epoch time:      10356.88369889
Element set:    0708
Inclination:      098.5098 deg
RA of node:       300.1724 deg
Eccentricity:    0.0009253
Arg of perigee:   075.9882 deg
Mean anomaly:     284.2359 deg
Mean motion:   14.29320516 rev/day
Decay rate:        9.0e-08 rev/day^2
Epoch rev:           89900
Checksum:              344

Satellite: IO-26
Catalog number: 22826
Epoch time:      10356.77524281
Element set:    0444
Inclination:      098.5049 deg
RA of node:       300.6013 deg
Eccentricity:    0.0009839
Arg of perigee:   070.6714 deg
Mean anomaly:     289.5532 deg
Mean motion:   14.29579291 rev/day
Decay rate:        2.2e-07 rev/day^2
Epoch rev:           89910
Checksum:              318

Satellite: GO-32
Catalog number: 25397
Epoch time:      10357.43253406
Element set:     363
Inclination:      098.3170 deg
RA of node:       354.4956 deg
Eccentricity:    0.0002237
Arg of perigee:   079.2660 deg
Mean anomaly:     280.8785 deg
Mean motion:   14.23192362 rev/day
Decay rate:       -9.8e-07 rev/day^2
Epoch rev:           64696
Checksum:              325

